Location: Unspecified
(0.0000°N, 0.0000°E)
Time: 16:11:45
(UTC+00:00)

Vanguard 2 Rocket - Pass Details

Date: 19 December 2018
Orbit: 556 x 3325 km, 32.9° (Epoch: 21 March)

Event Time Altitude Azimuth Distance (km) Brightness Sun altitude
Rises 11:44:11 0° 318° (NW) 3,609 9.8 66.4°
Reaches altitude 10° 11:46:22 10° 324° (NW) 2,904 9.4 66.4°
Maximum altitude 11:53:28 54° 40° (NE) 1,831 9.0 66.6°
Drops below altitude 10° 12:06:09 10° 113° (ESE) 5,031 10.9 66.5°
Sets 12:11:11 0° 117° (ESE) 6,458 11.3 66.3°
